AXY10 TJSJ-TNCC

Flight info

Callsign AXY10
Flight time 1h 12m
Altitude 40000
Route GANBO1 SCAPA SCAPA1B
Aircraft A343/H-SDE2E3FGHIJ4J5M1RWXY/LB1D1

Departure

Time 2026-04-14 21:27
Airport Luis Munoz Marin International Airport (TJSJ)

Arrival

Time 2026-04-14 22:39
Airport Hato International Airport (TNCC)
Time Latitude Longitude Altitude Speed Heading
2026-04-14 20:54 18.43931 -66.00781 21 ft 0 kts 157°
2026-04-14 21:12 18.43936 -66.00783 33 ft 4 kts 157°
2026-04-14 21:12 18.43961 -66.00794 24 ft 4 kts 157°
2026-04-14 21:13 18.43983 -66.00803 24 ft 4 kts 175°
2026-04-14 21:13 18.44004 -66.00797 26 ft 4 kts 240°
2026-04-14 21:13 18.44013 -66.00773 27 ft 1 kts 246°
2026-04-14 21:14 18.44015 -66.00769 27 ft 0 kts 246°
2026-04-14 21:18 18.44011 -66.00779 26 ft 3 kts 246°
2026-04-14 21:18 18.43999 -66.00810 25 ft 6 kts 246°
2026-04-14 21:18 18.43977 -66.00862 25 ft 9 kts 246°
2026-04-14 21:18 18.43948 -66.00933 24 ft 12 kts 246°
2026-04-14 21:19 18.43912 -66.01023 22 ft 15 kts 247°
2026-04-14 21:19 18.43874 -66.01103 24 ft 5 kts 235°
2026-04-14 21:19 18.43855 -66.01127 23 ft 5 kts 227°
2026-04-14 21:19 18.43830 -66.01142 21 ft 5 kts 202°
2026-04-14 21:20 18.43793 -66.01169 25 ft 7 kts 228°
2026-04-14 21:20 18.43773 -66.01214 24 ft 1 kts 248°
2026-04-14 21:23 18.43770 -66.01221 23 ft 2 kts 248°
2026-04-14 21:23 18.43762 -66.01242 24 ft 0 kts 248°
2026-04-14 21:23 18.43761 -66.01244 24 ft 1 kts 248°
2026-04-14 21:24 18.43754 -66.01262 22 ft 4 kts 248°
2026-04-14 21:24 18.43740 -66.01302 22 ft 7 kts 251°
2026-04-14 21:24 18.43749 -66.01360 24 ft 9 kts 297°
2026-04-14 21:24 18.43776 -66.01401 24 ft 11 kts 306°
2026-04-14 21:25 18.43842 -66.01454 21 ft 13 kts 342°
2026-04-14 21:25 18.43899 -66.01427 21 ft 9 kts 53°
2026-04-14 21:25 18.43909 -66.01405 24 ft 0 kts 66°
2026-04-14 21:26 18.43931 -66.01352 24 ft 38 kts 66°
2026-04-14 21:26 18.44018 -66.01135 24 ft 82 kts 68°
2026-04-14 21:26 18.44353 -66.00308 24 ft 151 kts 66°
2026-04-14 21:26 18.44830 -65.99165 394 ft 181 kts 66°
2026-04-14 21:27 18.45360 -65.97885 1040 ft 198 kts 66°
2026-04-14 21:27 18.45940 -65.96502 1735 ft 217 kts 66°
2026-04-14 21:27 18.46105 -65.94814 2174 ft 253 kts 104°
2026-04-14 21:27 18.45164 -65.93236 3211 ft 261 kts 140°
2026-04-14 21:28 18.43504 -65.92510 4478 ft 263 kts 175°
2026-04-14 21:28 18.41728 -65.92879 5685 ft 265 kts 208°
2026-04-14 21:28 18.40427 -65.94238 6828 ft 269 kts 242°
2026-04-14 21:28 18.39780 -65.96063 7886 ft 273 kts 248°
2026-04-14 21:29 18.38593 -65.97609 8965 ft 277 kts 214°
2026-04-14 21:29 18.36855 -65.98504 10052 ft 281 kts 202°
2026-04-14 21:29 18.34995 -65.99313 10717 ft 300 kts 204°
2026-04-14 21:29 18.33017 -66.00247 11201 ft 321 kts 206°
2026-04-14 21:30 18.30971 -66.01287 11928 ft 331 kts 207°
2026-04-14 21:30 18.28888 -66.02382 12789 ft 338 kts 207°
2026-04-14 21:30 18.26774 -66.03511 13716 ft 344 kts 208°
2026-04-14 21:30 18.24627 -66.04667 14561 ft 350 kts 208°
2026-04-14 21:31 18.22440 -66.05851 15449 ft 354 kts 208°
2026-04-14 21:31 18.20237 -66.07046 16358 ft 358 kts 209°
2026-04-14 21:31 18.18043 -66.08238 17284 ft 360 kts 209°
2026-04-14 21:31 18.15806 -66.09454 18149 ft 364 kts 209°
2026-04-14 21:32 18.13543 -66.10685 18893 ft 368 kts 209°
2026-04-14 21:32 18.11265 -66.11923 19683 ft 370 kts 209°
2026-04-14 21:32 18.08970 -66.13171 20459 ft 372 kts 209°
2026-04-14 21:32 18.06658 -66.14427 21211 ft 375 kts 209°
2026-04-14 21:33 18.04352 -66.15679 21975 ft 377 kts 209°
2026-04-14 21:33 18.02012 -66.16950 22725 ft 380 kts 209°
2026-04-14 21:33 17.99654 -66.18230 23442 ft 383 kts 209°
2026-04-14 21:33 17.97274 -66.19522 24016 ft 386 kts 209°
2026-04-14 21:34 17.94874 -66.20824 24525 ft 391 kts 210°
2026-04-14 21:34 17.92443 -66.22143 25023 ft 395 kts 210°
2026-04-14 21:34 17.89981 -66.23478 25515 ft 399 kts 210°
2026-04-14 21:34 17.87505 -66.24821 26037 ft 402 kts 211°
2026-04-14 21:35 17.84999 -66.26180 26409 ft 409 kts 211°
2026-04-14 21:35 17.82451 -66.27561 26823 ft 414 kts 211°
2026-04-14 21:35 17.79877 -66.28954 27338 ft 417 kts 211°
2026-04-14 21:35 17.77291 -66.30354 27835 ft 420 kts 212°
2026-04-14 21:36 17.74686 -66.31764 28299 ft 423 kts 212°
2026-04-14 21:36 17.72089 -66.33169 28769 ft 426 kts 212°
2026-04-14 21:36 17.69445 -66.34599 29224 ft 429 kts 212°
2026-04-14 21:36 17.66781 -66.36039 29670 ft 432 kts 212°
2026-04-14 21:37 17.64100 -66.37488 30081 ft 435 kts 213°
2026-04-14 21:37 17.61398 -66.38948 30398 ft 438 kts 213°
2026-04-14 21:37 17.58674 -66.40418 30722 ft 442 kts 213°
2026-04-14 21:37 17.55938 -66.41896 31093 ft 443 kts 214°
2026-04-14 21:38 17.53193 -66.43377 31491 ft 445 kts 214°
2026-04-14 21:38 17.50434 -66.44865 31926 ft 445 kts 214°
2026-04-14 21:38 17.47694 -66.46341 32463 ft 442 kts 214°
2026-04-14 21:38 17.44965 -66.47810 33028 ft 438 kts 215°
2026-04-14 21:39 17.42263 -66.49266 33574 ft 435 kts 215°
2026-04-14 21:39 17.39638 -66.50800 34059 ft 428 kts 220°
2026-04-14 21:39 17.37149 -66.52427 34482 ft 425 kts 220°
2026-04-14 21:39 17.34649 -66.54072 34892 ft 424 kts 220°
2026-04-14 21:40 17.32149 -66.55701 35262 ft 422 kts 220°
2026-04-14 21:40 17.29652 -66.57316 35633 ft 422 kts 220°
2026-04-14 21:40 17.27147 -66.58929 35943 ft 422 kts 220°
2026-04-14 21:40 17.24648 -66.60531 36305 ft 421 kts 220°
2026-04-14 21:41 17.22148 -66.62130 36688 ft 420 kts 220°
2026-04-14 21:41 17.19663 -66.63719 37087 ft 418 kts 220°
2026-04-14 21:41 17.17183 -66.65302 37472 ft 416 kts 220°
2026-04-14 21:41 17.14716 -66.66877 37849 ft 414 kts 220°
2026-04-14 21:42 17.12261 -66.68443 38223 ft 413 kts 220°
2026-04-14 21:42 17.09812 -66.70006 38593 ft 411 kts 220°
2026-04-14 21:42 17.07371 -66.71563 38888 ft 410 kts 220°
2026-04-14 21:42 17.04966 -66.73096 39123 ft 411 kts 220°
2026-04-14 21:43 17.02520 -66.74657 39353 ft 411 kts 219°
2026-04-14 21:43 17.00069 -66.76219 39520 ft 412 kts 219°
2026-04-14 21:43 16.97619 -66.77780 39734 ft 413 kts 219°
2026-04-14 21:43 16.95160 -66.79346 39921 ft 415 kts 219°
2026-04-14 21:44 16.90239 -66.82475 39943 ft 412 kts 219°
2026-04-14 21:44 16.85351 -66.85583 39960 ft 410 kts 219°
2026-04-14 21:45 16.80509 -66.88661 39962 ft 410 kts 219°
2026-04-14 21:45 16.75616 -66.91769 39956 ft 410 kts 219°
2026-04-14 21:46 16.70739 -66.94865 39947 ft 410 kts 219°
2026-04-14 21:46 16.65860 -66.97960 39945 ft 410 kts 219°
2026-04-14 21:47 16.61015 -67.01032 39947 ft 410 kts 219°
2026-04-14 21:47 16.56141 -67.04120 39945 ft 410 kts 219°
2026-04-14 21:48 16.51260 -67.07211 39944 ft 410 kts 219°
2026-04-14 21:48 16.46384 -67.10297 39945 ft 410 kts 219°
2026-04-14 21:49 16.41504 -67.13383 39940 ft 410 kts 219°
2026-04-14 21:49 16.36656 -67.16448 39947 ft 410 kts 219°
2026-04-14 21:50 16.31780 -67.19528 39942 ft 409 kts 219°
2026-04-14 21:50 16.26906 -67.22606 39945 ft 410 kts 219°
2026-04-14 21:51 16.22024 -67.25686 39945 ft 410 kts 219°
2026-04-14 21:51 16.17174 -67.28744 39945 ft 410 kts 219°
2026-04-14 21:52 16.12285 -67.31825 39919 ft 410 kts 219°
2026-04-14 21:52 16.07405 -67.34899 39941 ft 408 kts 218°
2026-04-14 21:53 16.02550 -67.37955 39938 ft 407 kts 219°
2026-04-14 21:53 15.97692 -67.41012 39938 ft 407 kts 218°
2026-04-14 21:54 15.92871 -67.44043 39936 ft 407 kts 218°
2026-04-14 21:54 15.88009 -67.47099 39935 ft 407 kts 218°
2026-04-14 21:55 15.83158 -67.50147 39937 ft 407 kts 218°
2026-04-14 21:55 15.78078 -67.52860 39937 ft 412 kts 213°
2026-04-14 21:56 15.72920 -67.55451 39936 ft 411 kts 214°
2026-04-14 21:56 15.67781 -67.58081 39936 ft 411 kts 214°
2026-04-14 21:57 15.62676 -67.60710 39936 ft 411 kts 214°
2026-04-14 21:57 15.57537 -67.63360 39936 ft 411 kts 214°
2026-04-14 21:58 15.52409 -67.66005 39933 ft 411 kts 214°
2026-04-14 21:58 15.47309 -67.68635 39933 ft 412 kts 213°
2026-04-14 21:59 15.42184 -67.71276 39929 ft 412 kts 213°
2026-04-14 21:59 15.37055 -67.73917 39927 ft 412 kts 213°
2026-04-14 22:00 15.31924 -67.76558 39927 ft 411 kts 213°
2026-04-14 22:00 15.26796 -67.79196 39924 ft 411 kts 213°
2026-04-14 22:01 15.21665 -67.81835 39928 ft 411 kts 213°
2026-04-14 22:01 15.16535 -67.84473 39924 ft 412 kts 213°
2026-04-14 22:02 15.11431 -67.87093 39924 ft 411 kts 213°
2026-04-14 22:02 15.06296 -67.89729 39920 ft 411 kts 213°
2026-04-14 22:03 15.01159 -67.92364 39920 ft 411 kts 213°
2026-04-14 22:03 14.96030 -67.94995 39924 ft 411 kts 213°
2026-04-14 22:04 14.90901 -67.97623 39915 ft 411 kts 213°
2026-04-14 22:04 14.85803 -68.00236 39913 ft 411 kts 213°
2026-04-14 22:05 14.80661 -68.02868 39919 ft 412 kts 213°
2026-04-14 22:05 14.75521 -68.05498 39919 ft 412 kts 213°
2026-04-14 22:06 14.70379 -68.08128 39917 ft 412 kts 213°
2026-04-14 22:06 14.65244 -68.10752 39913 ft 412 kts 213°
2026-04-14 22:07 14.60141 -68.13360 39915 ft 412 kts 213°
2026-04-14 22:07 14.55003 -68.15984 39900 ft 412 kts 212°
2026-04-14 22:08 14.49864 -68.18606 39914 ft 412 kts 212°
2026-04-14 22:08 14.44721 -68.21230 39912 ft 412 kts 212°
2026-04-14 22:09 14.39580 -68.23850 39915 ft 412 kts 212°
2026-04-14 22:09 14.34441 -68.26469 39909 ft 412 kts 212°
2026-04-14 22:10 14.32022 -68.27701 39910 ft 412 kts 212°
2026-04-14 22:10 14.29050 -68.29214 39906 ft 412 kts 212°
2026-04-14 22:11 14.23913 -68.31830 39895 ft 412 kts 212°
2026-04-14 22:11 14.18765 -68.34450 39911 ft 413 kts 212°
2026-04-14 22:12 14.13614 -68.37068 39690 ft 411 kts 212°
2026-04-14 22:12 14.11057 -68.38366 39347 ft 408 kts 212°
2026-04-14 22:12 14.08506 -68.39663 38907 ft 408 kts 212°
2026-04-14 22:13 14.05964 -68.40955 38465 ft 407 kts 212°
2026-04-14 22:13 14.03425 -68.42244 38022 ft 406 kts 212°
2026-04-14 22:13 14.00925 -68.43513 37594 ft 404 kts 212°
2026-04-14 22:13 13.98404 -68.44792 37179 ft 402 kts 212°
2026-04-14 22:14 13.95902 -68.46062 36760 ft 400 kts 212°
2026-04-14 22:14 13.93410 -68.47327 36349 ft 399 kts 212°
2026-04-14 22:14 13.90921 -68.48590 35921 ft 399 kts 212°
2026-04-14 22:14 13.88424 -68.49859 35505 ft 403 kts 212°
2026-04-14 22:15 13.85899 -68.51141 35026 ft 407 kts 212°
2026-04-14 22:15 13.83348 -68.52435 34466 ft 410 kts 213°
2026-04-14 22:15 13.81642 -68.53300 34063 ft 413 kts 213°
2026-04-14 22:15 13.79041 -68.54620 33270 ft 419 kts 213°
2026-04-14 22:16 13.76413 -68.55952 32483 ft 424 kts 213°
2026-04-14 22:16 13.73745 -68.57304 31686 ft 429 kts 212°
2026-04-14 22:16 13.71050 -68.58668 30983 ft 433 kts 212°
2026-04-14 22:16 13.68353 -68.60031 30419 ft 432 kts 212°
2026-04-14 22:17 13.65654 -68.61394 29802 ft 432 kts 212°
2026-04-14 22:17 13.62956 -68.62758 29149 ft 431 kts 212°
2026-04-14 22:17 13.60307 -68.64096 28554 ft 429 kts 212°
2026-04-14 22:17 13.57638 -68.65445 27949 ft 427 kts 211°
2026-04-14 22:18 13.54972 -68.66792 27356 ft 425 kts 211°
2026-04-14 22:18 13.52322 -68.68132 26754 ft 423 kts 211°
2026-04-14 22:18 13.49681 -68.69467 26125 ft 422 kts 211°
2026-04-14 22:18 13.47045 -68.70799 25528 ft 421 kts 211°
2026-04-14 22:19 13.44417 -68.72126 24907 ft 420 kts 211°
2026-04-14 22:19 13.39178 -68.74771 23690 ft 418 kts 210°
2026-04-14 22:19 13.36571 -68.76087 23015 ft 417 kts 210°
2026-04-14 22:20 13.33975 -68.77397 22372 ft 414 kts 210°
2026-04-14 22:20 13.31396 -68.78697 21773 ft 411 kts 210°
2026-04-14 22:20 13.28875 -68.79968 21172 ft 407 kts 210°
2026-04-14 22:20 13.26339 -68.81246 20579 ft 404 kts 210°
2026-04-14 22:21 13.23830 -68.82511 19986 ft 400 kts 210°
2026-04-14 22:21 13.21338 -68.83767 19383 ft 397 kts 210°
2026-04-14 22:21 13.18869 -68.85011 18816 ft 393 kts 210°
2026-04-14 22:21 13.16429 -68.86240 18278 ft 388 kts 210°
2026-04-14 22:22 13.14016 -68.87455 17647 ft 385 kts 210°
2026-04-14 22:22 13.11626 -68.88659 17040 ft 380 kts 210°
2026-04-14 22:22 13.09262 -68.89849 16472 ft 376 kts 209°
2026-04-14 22:22 13.06925 -68.91026 15889 ft 372 kts 209°
2026-04-14 22:23 13.04634 -68.92178 15308 ft 361 kts 209°
2026-04-14 22:23 13.02431 -68.93286 14763 ft 352 kts 209°
2026-04-14 22:23 13.00246 -68.94385 14228 ft 349 kts 209°
2026-04-14 22:23 12.98060 -68.95486 13688 ft 349 kts 208°
2026-04-14 22:24 12.95883 -68.96583 13109 ft 348 kts 208°
2026-04-14 22:24 12.93714 -68.97673 12570 ft 346 kts 208°
2026-04-14 22:24 12.91553 -68.98760 12046 ft 344 kts 208°
2026-04-14 22:24 12.89406 -68.99839 11504 ft 342 kts 207°
2026-04-14 22:25 12.87269 -69.00913 10956 ft 340 kts 207°
2026-04-14 22:25 12.85177 -69.01964 10429 ft 339 kts 207°
2026-04-14 22:25 12.83091 -69.03011 10198 ft 327 kts 207°
2026-04-14 22:25 12.81091 -69.04015 10077 ft 313 kts 207°
2026-04-14 22:26 12.79180 -69.04975 9951 ft 300 kts 207°
2026-04-14 22:26 12.77334 -69.05902 9736 ft 292 kts 207°
2026-04-14 22:26 12.75519 -69.06812 9399 ft 288 kts 207°
2026-04-14 22:26 12.73730 -69.07710 9100 ft 284 kts 206°
2026-04-14 22:27 12.71958 -69.08598 8747 ft 282 kts 207°
2026-04-14 22:27 12.70209 -69.09476 8474 ft 280 kts 206°
2026-04-14 22:27 12.68443 -69.10362 8233 ft 284 kts 206°
2026-04-14 22:27 12.66664 -69.11254 7977 ft 283 kts 206°
2026-04-14 22:28 12.64902 -69.12137 7677 ft 281 kts 206°
2026-04-14 22:28 12.63167 -69.13006 7407 ft 282 kts 206°
2026-04-14 22:28 12.61414 -69.13884 7146 ft 280 kts 206°
2026-04-14 22:28 12.59659 -69.14764 6895 ft 281 kts 206°
2026-04-14 22:29 12.57908 -69.15641 6628 ft 278 kts 206°
2026-04-14 22:29 12.56154 -69.16487 6358 ft 279 kts 201°
2026-04-14 22:29 12.54266 -69.16883 6082 ft 278 kts 181°
2026-04-14 22:29 12.52336 -69.16830 5797 ft 278 kts 176°
2026-04-14 22:30 12.50395 -69.16706 5530 ft 279 kts 175°
2026-04-14 22:30 12.48464 -69.16583 5287 ft 276 kts 175°
2026-04-14 22:30 12.46544 -69.16464 5099 ft 274 kts 174°
2026-04-14 22:30 12.44682 -69.16351 4961 ft 260 kts 174°
2026-04-14 22:31 12.42952 -69.16249 4843 ft 237 kts 175°
2026-04-14 22:31 12.41365 -69.16154 4736 ft 223 kts 174°
2026-04-14 22:31 12.39845 -69.16066 4466 ft 218 kts 174°
2026-04-14 22:31 12.38347 -69.15981 4124 ft 213 kts 175°
2026-04-14 22:32 12.36887 -69.15899 3824 ft 207 kts 174°
2026-04-14 22:32 12.35445 -69.15817 3562 ft 208 kts 174°
2026-04-14 22:32 12.34013 -69.15736 3299 ft 206 kts 174°
2026-04-14 22:32 12.32576 -69.15653 3053 ft 206 kts 174°
2026-04-14 22:33 12.31150 -69.15568 2992 ft 205 kts 173°
2026-04-14 22:33 12.29755 -69.15490 2978 ft 196 kts 173°
2026-04-14 22:33 12.28404 -69.15413 2979 ft 192 kts 174°
2026-04-14 22:33 12.27081 -69.15337 2704 ft 190 kts 174°
2026-04-14 22:34 12.25751 -69.15260 2513 ft 194 kts 174°
2026-04-14 22:34 12.24422 -69.15114 2488 ft 193 kts 164°
2026-04-14 22:34 12.23343 -69.14415 2492 ft 179 kts 126°
2026-04-14 22:34 12.22698 -69.13365 2488 ft 171 kts 112°
2026-04-14 22:35 12.22337 -69.12250 2483 ft 161 kts 101°
2026-04-14 22:35 12.22095 -69.11158 2487 ft 156 kts 100°
2026-04-14 22:35 12.21865 -69.10076 2487 ft 157 kts 99°
2026-04-14 22:35 12.21636 -69.09002 2398 ft 150 kts 100°
2026-04-14 22:36 12.21415 -69.07990 2186 ft 143 kts 100°
2026-04-14 22:36 12.21208 -69.07001 1993 ft 142 kts 99°
2026-04-14 22:36 12.21003 -69.06021 1813 ft 143 kts 100°
2026-04-14 22:36 12.20796 -69.05037 1635 ft 141 kts 100°
2026-04-14 22:37 12.20591 -69.04061 1437 ft 140 kts 99°
2026-04-14 22:37 12.20390 -69.03100 1259 ft 136 kts 100°
2026-04-14 22:37 12.20191 -69.02156 1080 ft 137 kts 99°
2026-04-14 22:37 12.19990 -69.01195 919 ft 139 kts 100°
2026-04-14 22:38 12.19789 -69.00235 733 ft 135 kts 101°
2026-04-14 22:38 12.19593 -68.99301 576 ft 135 kts 99°
2026-04-14 22:38 12.19392 -68.98340 388 ft 139 kts 102°
2026-04-14 22:38 12.19191 -68.97381 214 ft 136 kts 100°
2026-04-14 22:39 12.18988 -68.96412 60 ft 142 kts 102°
2026-04-14 22:39 12.18817 -68.95596 45 ft 80 kts 103°
2026-04-14 22:39 12.18752 -68.95307 46 ft 21 kts 103°
2026-04-14 22:39 12.18717 -68.95159 46 ft 21 kts 104°
2026-04-14 22:40 12.18687 -68.95012 48 ft 21 kts 102°
2026-04-14 22:40 12.18654 -68.94859 50 ft 24 kts 102°
2026-04-14 22:40 12.18618 -68.94692 49 ft 25 kts 102°
2026-04-14 22:40 12.18583 -68.94526 51 ft 20 kts 103°
2026-04-14 22:41 12.18504 -68.94465 50 ft 16 kts 183°
2026-04-14 22:41 12.18417 -68.94512 49 ft 12 kts 248°
2026-04-14 22:41 12.18429 -68.94621 49 ft 20 kts 281°
2026-04-14 22:41 12.18460 -68.94777 49 ft 24 kts 282°
2026-04-14 22:42 12.18496 -68.94953 48 ft 27 kts 282°
2026-04-14 22:42 12.18537 -68.95148 48 ft 29 kts 282°
2026-04-14 22:42 12.18582 -68.95361 47 ft 32 kts 282°
2026-04-14 22:42 12.18631 -68.95588 47 ft 33 kts 282°
2026-04-14 22:43 12.18677 -68.95808 47 ft 30 kts 282°
2026-04-14 22:43 12.18720 -68.96012 47 ft 28 kts 282°
2026-04-14 22:43 12.18759 -68.96199 47 ft 26 kts 282°
2026-04-14 22:43 12.18795 -68.96374 47 ft 24 kts 282°
2026-04-14 22:44 12.18827 -68.96536 45 ft 22 kts 281°
2026-04-14 22:44 12.18855 -68.96674 46 ft 12 kts 281°
2026-04-14 22:44 12.18868 -68.96740 46 ft 8 kts 281°
2026-04-14 22:44 12.18879 -68.96793 45 ft 7 kts 281°
2026-04-14 22:45 12.18888 -68.96840 45 ft 6 kts 281°
2026-04-14 22:45 12.18895 -68.96879 45 ft 5 kts 281°
2026-04-14 22:45 12.18902 -68.96912 45 ft 4 kts 281°
2026-04-14 22:45 12.18911 -68.96959 45 ft 5 kts 280°
2026-04-14 22:46 12.18911 -68.96962 45 ft 0 kts 279°
2026-04-14 22:46 12.18912 -68.96971 45 ft 0 kts 277°
2026-04-14 22:46 12.18912 -68.96973 45 ft 0 kts 276°